星链-3515 (STARLINK-3515 )

导读 | 豆包AI

STARLINK-3515是美国SpaceX星链计划中的卫星,于2022年2月21日由猎鹰九号火箭发射升空,属于星链4-8任务。该卫星部署在近地轨道,属于星链低轨互联网星座的组成部分,旨在为全球提供高速低延迟互联网接入服务,此次发射是SpaceX吸取此前磁暴导致卫星损失的教训,调整了发射入轨参数,保障卫星运行安全。

Basic Information
目录编号:
51738
目录名称:
STARLINK-3515
国际标识:
2022-016AA
轨道中心:
EARTH
卫星名称:
星链-3515
卫星全名:
星链-3515 (STARLINK-3515 )
卫星状态:
在轨 (已飞行1530 天)
发射日期:
2022-02-21 UTC
国别 :
美国 (US)
星等 :
--
Orbit Information
数据来源 国际轨道数据 AOE轨道数据
星历时间 2026-04-30T15:18:43+0800
18小时前
查看轨道信息
2026-04-26T02:00:00+0800
5天前
查看轨道信息
半长轴 6917.874km 6917.802km
偏心率 0.0001461 0.0001274
轨道倾角 53.217° 53.217°
近地点辐角 85.310° 82.050°
升交点赤经 87.410° 107.856°
平近点角 274.806° 4.540°
近地点 538.726km 538.783km
远地点 540.748km 540.547km
周期 95.437分钟 95.436分钟
每日圈数 15.088421 15.088658
Detailed Information
固有亮度:
5
最大亮度:
2.5
卫星平台:
Starlink v1.5
覆盖范围:
全球
运营商:
太空探索技术公司
运营商所在国:
美国
制造商(研发单位):
太空探索技术公司
制造商所在国:
美国
使用方式:
暂无
Satellite Introduction
星链(Starlink)计划是由太空探索技术公司(SpaceX)提出的一个巨型低轨卫星互联网星座项目,计划在2019年至2024年间在太空搭建由约1.2万颗卫星组成的“星链”网络,其中1584颗将部署在地球上空550千米处的近地轨道,并从2020年开始工作。该卫星仍在工作。
2D Orbit Map
3D Orbit Map
Orbit Altitude Analysis Chart
Orbit Inclination Analysis Chart
Orbit Comprehensive Analysis Chart
View Comprehensive Chart